Fort Myers, FL

8:37 AM EDT on August 19, 2017 (GMT -0400)
Page

Weather History for KFMY - April, 2015

Change the Weather History Date:

Tuesday, April 28, 2015

  Actual Average Record
Temperature  
Mean Temperature 76 °F 76 °F  
Max Temperature 82 °F 87 °F 96 °F (2017)
Min Temperature 69 °F 65 °F 51 °F (1977)
Degree Days  
Heating Degree Days 0 0  
Month to date heating degree days 0 0  
Since 1 July heating degree days 231 284  
Cooling Degree Days 11 11  
Month to date cooling degree days 397 246  
Year to date cooling degree days 850 607  
Growing Degree Days 26 (Base 50)    
Moisture  
Dew Point 70 °F    
Average Humidity 88    
Maximum Humidity 97    
Minimum Humidity 71    
Precipitation  
Precipitation 0.49 in 0.07 in 1.49 in (1995)
Month to date precipitation 1.41 2.04  
Year to date precipitation 6.09 9.01  
Sea Level Pressure  
Sea Level Pressure 29.80 in    
Wind  
Wind Speed 8 mph (East)    
Max Wind Speed 30 mph    
Max Gust Speed 36 mph    
Visibility 8 miles    
Events Fog , Rain , Thunderstorm    
T = Trace of Precipitation, MM = Missing Value Source: NWS Daily Summary

Daily Weather History Graph

Daily Weather History Graph

Search for Another Location

Airport or City:

Trip Planner

Search our weather history database for the weather conditions in past years. The results will help you decide how hot, cold, wet, or windy it might be!

Date:

Astronomy

Apr. 28, 2015 Rise Set
Actual Time 6:52 AM EDT 7:58 PM EDT
Civil Twilight 6:27 AM EDT 8:22 PM EDT
Nautical Twilight 5:59 AM EDT 8:51 PM EDT
Astronomical Twilight 5:29 AM EDT 9:20 PM EDT
Moon 3:29 PM EDT (4/28) 3:33 AM EDT (4/28)
Length of Visible Light 13h 54m
Length of Day
13h 05m
Waxing Gibbous, 74% of the Moon is Illuminated
Apr 28
Waxing Gibbous
May 3
Full
May 11
Last Quarter
May 18
New
May 25
First Quarter

Hourly Weather History & Observations

Time (EDT) Temp. Heat Index Dew Point Humidity Pressure Visibility Wind Dir Wind Speed Gust Speed Precip Events Conditions
12:53 AM 77.0 °F - 69.1 °F 76% 29.85 in 10.0 mi East 5.8 mph - N/A   Clear
1:53 AM 75.0 °F - 69.1 °F 82% 29.83 in 10.0 mi ENE 4.6 mph - N/A   Scattered Clouds
2:53 AM 75.0 °F - 69.1 °F 82% 29.79 in 10.0 mi East 5.8 mph - N/A   Partly Cloudy
3:53 AM 75.0 °F - 69.1 °F 82% 29.79 in 10.0 mi East 6.9 mph - N/A   Overcast
4:53 AM 73.9 °F - 69.1 °F 85% 29.78 in 10.0 mi ESE 8.1 mph - N/A   Overcast
5:53 AM 73.9 °F - 69.1 °F 85% 29.77 in 10.0 mi ESE 8.1 mph - N/A   Clear
6:53 AM 73.9 °F - 69.1 °F 85% 29.78 in 10.0 mi SE 8.1 mph - N/A   Mostly Cloudy
7:53 AM 75.9 °F - 70.0 °F 82% 29.78 in 10.0 mi SE 10.4 mph - N/A   Overcast
8:53 AM 78.1 °F - 68.0 °F 71% 29.79 in 10.0 mi SSE 9.2 mph - N/A   Mostly Cloudy
9:53 AM 80.1 °F 83.8 °F 72.0 °F 76% 29.80 in 10.0 mi South 6.9 mph - N/A   Mostly Cloudy
10:53 AM 80.1 °F 84.2 °F 73.0 °F 79% 29.81 in 10.0 mi South 4.6 mph - N/A   Scattered Clouds
11:53 AM 81.0 °F 86.2 °F 73.9 °F 79% 29.82 in 10.0 mi SSW 3.5 mph - N/A   Mostly Cloudy
12:20 PM 82.0 °F 89.4 °F 75.9 °F 82% 29.81 in 8.0 mi WSW 6.9 mph - N/A Thunderstorm Mostly Cloudy
12:37 PM 78.1 °F - 73.9 °F 87% 29.82 in 6.0 mi NNE 13.8 mph 19.6 mph 0.00 in Rain Light Rain
12:49 PM 71.6 °F - 69.8 °F 94% 29.81 in 6.0 mi North 21.9 mph 27.6 mph 0.00 in Rain Light Rain
12:53 PM 71.1 °F - 69.1 °F 93% 29.82 in 6.0 mi NNE 23.0 mph 28.8 mph 0.00 in Rain Light Rain
1:02 PM 70.0 °F - 69.1 °F 97% 29.82 in 2.5 mi North 25.3 mph 33.4 mph 0.02 in Rain Heavy Rain
1:06 PM 70.0 °F - 69.1 °F 97% 29.82 in 1.2 mi North 18.4 mph 33.4 mph 0.07 in Rain , Thunderstorm Heavy Thunderstorms and Rain
1:14 PM 69.1 °F - 69.1 °F 100% 29.81 in 0.5 mi NNE 26.5 mph 35.7 mph 0.30 in Fog , Rain , Thunderstorm Heavy Thunderstorms and Rain
1:22 PM 69.1 °F - 69.1 °F 100% 29.81 in 1.0 mi North 23.0 mph 35.7 mph 0.37 in Rain , Thunderstorm Thunderstorms and Rain
1:27 PM 69.1 °F - 69.1 °F 100% 29.81 in 2.0 mi North 20.7 mph 29.9 mph 0.41 in Rain , Thunderstorm Light Thunderstorms and Rain
1:32 PM 69.1 °F - 68.0 °F 96% 29.82 in 5.0 mi North 19.6 mph 31.1 mph 0.41 in Rain , Thunderstorm Light Rain
1:35 PM 69.1 °F - 68.0 °F 96% 29.82 in 9.0 mi North 19.6 mph 31.1 mph 0.41 in Rain , Thunderstorm Light Rain
1:44 PM 69.1 °F - 68.0 °F 96% 29.84 in 2.5 mi Variable 3.5 mph 27.6 mph 0.42 in Rain Rain
1:53 PM 69.1 °F - 68.0 °F 96% 29.85 in 2.5 mi ESE 10.4 mph - 0.47 in Rain Rain
2:00 PM 69.1 °F - 68.0 °F 96% 29.83 in 3.0 mi ENE 11.5 mph - 0.01 in Rain Light Rain
2:21 PM 70.0 °F - 68.0 °F 93% 29.79 in 10.0 mi ENE 11.5 mph - 0.02 in   Mostly Cloudy
2:53 PM 71.1 °F - 68.0 °F 90% 29.76 in 10.0 mi ENE 10.4 mph - 0.02 in   Clear
3:53 PM 73.9 °F - 69.1 °F 85% 29.75 in 10.0 mi East 6.9 mph - N/A   Clear
4:53 PM 78.1 °F - 70.0 °F 76% 29.75 in 10.0 mi East 10.4 mph - N/A   Clear
5:53 PM 77.0 °F - 70.0 °F 79% 29.75 in 10.0 mi ESE 11.5 mph - N/A   Clear
6:53 PM 75.9 °F - 70.0 °F 82% 29.74 in 10.0 mi ESE 4.6 mph - N/A   Clear
7:53 PM 75.9 °F - 71.1 °F 85% 29.76 in 10.0 mi ENE 3.5 mph - N/A   Clear
8:53 PM 73.9 °F - 71.1 °F 91% 29.77 in 10.0 mi East 4.6 mph - N/A   Clear
9:53 PM 73.9 °F - 71.1 °F 91% 29.78 in 10.0 mi ESE 4.6 mph - N/A   Partly Cloudy
10:53 PM 73.9 °F - 71.1 °F 91% 29.78 in 10.0 mi ESE 6.9 mph - N/A   Clear
11:53 PM 73.9 °F - 71.1 °F 91% 29.76 in 10.0 mi ESE 4.6 mph - N/A   Clear